This is the latest recevied weather packets stored in our database for station/object IZ2MHJ-3. If no packets are shown the sender has not sent any weather packets the latest 10 day(s).
| Time | Temp. | Humidity | Pressure | Rain* | Wind** | Luminosity | Snow |
|---|---|---|---|---|---|---|---|
| 1777691443 | 10.56° C | 67% | 1028.5 hPa | - | - | - | - |
| 1777690242 | 10.56° C | 66% | 1028.6 hPa | - | - | - | - |
| 1777689042 | 10.56° C | 65% | 1028.6 hPa | - | - | - | - |
| 1777687842 | 10.56° C | 65% | 1028.7 hPa | - | - | - | - |
| 1777686641 | 10.56° C | 64% | 1028.6 hPa | - | - | - | - |
| 1777685441 | 11.11° C | 64% | 1028.7 hPa | - | - | - | - |
| 1777684241 | 11.67° C | 62% | 1028.6 hPa | - | - | - | - |
| 1777683040 | 11.67° C | 61% | 1028.6 hPa | - | - | - | - |
| 1777681840 | 11.67° C | 61% | 1028.6 hPa | - | - | - | - |
| 1777680640 | 11.67° C | 60% | 1028.7 hPa | - | - | - | - |
| 1777679440 | 11.67° C | 60% | 1028 hPa | - | - | - | - |
| 1777678239 | 12.22° C | 59% | 1028.7 hPa | - | - | - | - |
| 1777677039 | 12.78° C | 57% | 1028.6 hPa | - | - | - | - |
| 1777675839 | 12.78° C | 57% | 1028.6 hPa | - | - | - | - |
| 1777674639 | 13.33° C | 55% | 1028.6 hPa | - | - | - | - |
| 1777673438 | 13.89° C | 54% | 1028.5 hPa | - | - | - | - |
| 1777672238 | 14.44° C | 53% | 1028.3 hPa | - | - | - | - |
| 1777671037 | 14.44° C | 52% | 1028.3 hPa | - | - | - | - |
| 1777669837 | 14.44° C | 51% | 1028.3 hPa | - | - | - | - |
| 1777668637 | 14.44° C | 50% | 1028.2 hPa | - | - | - | - |
| 1777667436 | 15° C | 50% | 1028 hPa | - | - | - | - |
| 1777666236 | 15.56° C | 48% | 1027.9 hPa | - | - | - | - |
| 1777665036 | 16.67° C | 45% | 1027.6 hPa | - | - | - | - |
| 1777663836 | 18.33° C | 39% | 1027.1 hPa | - | - | - | - |
| 1777662635 | 18.33° C | 38% | 1027 hPa | - | - | - | - |
* Rain since midnight (hover to see other rain measurements)
** Current wind speed in m/s (hover to see current wind gust speed)